Wind_Speed
55 51 48 51 49 46 47 46 40 40 39 36 33 31 30 29 27 28 27 26 25 23 23 23 23 25 27 29 29 31 36 35 26 27 27 27 27 30 33 36 39 36 33
61 58 57 54 55 54 51 52 50 46 44 41 39 38 36 35 34 34 32 32 31 30 30 29 29 30 31 31 32 36 36 37 36 32 33 32 32 32 38 36 37 41 38
65 64 63 60 61 60 59 58 55 52 49 46 43 44 43 41 41 39 38 38 38 37 37 37 35 35 34 36 37 37 37 37 37 34 34 34 35 34 34 37 39 38 43
62 67 71 67 65 67 67 62 58 58 55 51 49 49 49 48 48 44 44 44 45 44 44 43 42 42 42 41 42 43 43 42 42 42 39 38 37 37 37 36 40 42 41
53 56 69 71 72 71 70 70 65 62 61 57 55 54 52 53 51 50 50 50 52 51 51 51 49 49 49 49 48 48 48 46 45 45 45 42 40 40 41 37 36 41 44
66 59 59 69 65 69 73 75 73 69 65 63 60 59 59 58 56 55 55 55 56 56 55 55 55 55 56 54 53 52 51 49 48 49 48 46 44 43 41 40 38 38 43
70 71 68 67 68 67 66 72 73 74 72 69 67 66 68 65 63 61 61 61 60 59 59 58 59 59 59 58 57 54 53 53 52 52 49 47 46 44 44 40 41 42 43
79 76 78 74 70 71 70 71 70 72 73 74 73 73 72 71 70 67 66 67 67 66 63 63 63 63 62 63 61 58 56 54 52 50 49 48 48 47 47 43 44 43 42
88 83 84 82 79 76 73 73 71 71 71 73 75 74 75 74 75 73 72 70 72 69 66 66 66 66 67 65 60 56 53 50 47 46 46 47 51 53 52 51 49 50 46
88 90 91 88 83 79 78 76 73 70 68 67 71 73 76 75 73 75 73 73 72 69 66 66 63 58 53 50 46 46 46 46 46 48 51 53 55 57 57 55 52 52 53
90 91 95 93 90 87 85 84 79 75 69 66 68 68 68 67 65 65 65 62 60 57 53 51 49 46 44 45 45 47 49 51 53 55 56 57 58 59 61 61 59 59 60
103 96 93 94 96 95 90 89 86 82 79 73 71 70 69 65 63 64 64 62 59 56 53 53 50 50 52 52 54 56 57 59 60 60 60 61 62 63 65 66 65 67 66
105 105 106 107 104 97 94 94 91 86 86 82 81 78 76 71 68 68 69 68 66 63 61 61 60 60 60 60 62 64 64 66 66 65 63 65 69 69 70 70 69 70 72
113 111 110 112 112 111 104 101 95 87 85 87 89 88 86 81 80 77 74 73 73 71 67 66 67 69 69 68 66 67 69 70 70 71 73 74 73 73 73 73 72 75 78
121 119 117 117 115 115 114 110 103 98 94 94 95 93 93 91 88 85 83 80 77 75 74 73 73 73 75 75 76 75 74 75 77 79 80 80 79 79 79 78 80 82 85
129 124 120 118 116 117 116 114 111 107 103 102 102 101 99 98 93 88 86 84 83 80 79 80 79 79 80 81 83 84 82 82 82 83 86 87 87 88 84 84 85 88 89
136 137 129 124 121 120 118 116 114 112 110 104 103 104 103 103 100 96 92 92 88 87 88 87 86 85 84 86 87 89 90 90 89 91 91 91 95 94 93 93 93 94 94
133 134 139 139 132 128 125 119 118 116 114 111 110 110 108 106 104 102 99 96 92 92 92 90 90 88 87 90 93 94 96 96 97 98 96 99 100 100 101 100 100 97 99
133 136 139 138 140 138 134 130 122 120 117 115 114 113 111 110 109 109 107 102 100 99 100 99 97 95 94 97 100 100 100 102 103 103 103 106 106 106 104 100 98 102 104
127 133 137 137 137 137 137 135 126 121 118 120 117 118 119 117 116 113 110 107 106 105 104 103 100 99 99 102 106 106 106 106 107 108 109 109 112 108 106 107 108 109 112
125 129 132 135 138 139 139 137 134 131 127 122 120 118 120 121 121 120 115 113 112 110 109 106 104 104 105 107 107 108 108 109 111 110 112 113 113 113 111 112 114 116 118
116 121 125 125 135 139 139 137 135 136 135 134 131 125 120 121 122 121 119 116 113 112 112 111 108 107 109 110 109 108 109 111 111 113 116 117 116 115 117 118 119 118 118
115 114 115 118 121 132 137 135 136 136 138 137 136 136 133 128 124 120 118 117 114 114 114 114 112 111 112 113 114 113 114 116 115 114 117 120 121 121 121 121 123 121 123
113 109 109 111 115 118 123 131 137 138 135 135 139 140 139 136 135 132 129 126 121 120 119 118 117 117 117 117 116 116 117 118 119 121 124 127 126 124 126 123 125 127 127
100 104 104 104 107 116 116 120 127 135 139 140 140 139 139 139 140 137 134 130 128 127 124 123 122 122 121 121 122 122 123 124 125 126 126 127 129 129 128 128 127 129 127
93 92 91 97 104 112 112 116 120 123 130 135 138 140 141 141 141 141 138 135 131 130 128 125 125 123 124 125 125 126 126 128 130 130 129 128 131 133 130 130 128 129 128
Wind_Direction
241 243 242 244 247 246 250 251 250 250 253 258 259 259 261 265 270 275 280 285 289 290 295 304 311 319 322 329 327 329 335 339 331 328 326 325 320 324 319 318 318 320 320
242 242 243 244 246 246 248 252 253 252 253 255 260 263 264 267 270 272 275 280 285 287 290 297 304 310 314 318 320 324 326 328 332 322 321 321 316 317 309 315 316 315 314
243 245 245 244 248 250 247 247 254 256 256 256 258 261 263 264 269 271 275 279 282 286 291 295 300 304 307 309 314 317 317 318 321 318 315 313 314 311 308 315 316 311 309
242 242 245 245 245 249 250 251 249 255 256 257 259 261 264 267 268 272 275 279 284 287 291 294 297 300 302 305 308 311 313 312 314 315 314 308 310 311 313 308 313 314 308
240 244 246 246 244 246 251 252 251 252 255 256 259 262 264 266 270 273 275 279 283 286 289 292 295 296 298 301 303 306 307 309 308 308 311 307 305 312 310 306 314 313 310
237 240 247 250 250 249 252 253 255 254 255 257 259 262 264 265 268 270 274 276 278 282 285 288 292 293 295 298 300 302 304 305 303 306 304 303 303 307 305 306 304 312 308
241 242 242 246 248 250 250 254 255 256 256 258 259 261 263 265 267 269 272 274 276 279 283 286 288 290 292 294 296 299 299 299 300 300 298 299 299 304 303 299 299 302 307
236 240 241 243 247 250 252 254 256 258 259 259 260 261 262 266 268 270 272 275 278 279 280 282 284 286 288 291 293 293 294 295 293 295 298 297 298 301 301 299 295 291 306
239 237 239 240 243 246 250 253 255 257 260 262 264 265 266 267 269 271 273 274 276 278 280 282 283 283 286 288 290 289 292 294 295 296 297 298 297 298 300 298 297 291 300
240 240 241 242 241 245 250 252 255 258 260 261 262 263 264 266 269 271 273 273 275 278 281 282 284 285 285 287 289 290 292 294 295 295 297 297 297 297 297 296 298 295 288
240 240 243 243 244 247 247 250 253 254 256 259 261 263 264 265 267 269 271 272 275 277 280 281 283 283 283 287 288 288 289 290 292 294 295 296 297 297 295 294 292 298 294
243 243 246 247 247 249 249 249 253 254 252 253 257 261 263 265 266 267 269 272 274 278 280 281 278 280 283 283 284 286 287 289 290 291 293 295 297 295 294 293 291 295 297
242 244 249 252 251 251 252 252 255 257 253 252 254 255 259 262 264 267 269 270 273 275 277 279 280 281 282 284 285 286 286 288 289 291 293 297 300 296 295 295 293 292 296
242 244 247 251 253 254 251 252 253 253 255 255 257 257 258 259 261 262 266 268 271 273 274 277 279 282 282 283 284 286 287 289 290 291 293 296 297 297 297 294 293 293 294
244 246 247 249 250 253 256 254 252 253 255 257 258 258 258 258 263 264 264 266 267 270 273 276 279 282 283 282 283 286 287 288 289 292 294 294 296 297 296 294 295 294 294
241 242 243 245 249 252 253 255 257 255 254 256 258 260 259 260 261 263 264 265 266 269 270 272 277 280 281 282 282 285 287 287 290 292 292 295 296 296 297 297 297 295 296
241 242 242 243 244 247 250 251 253 256 257 256 257 259 258 259 261 263 264 265 266 267 268 270 273 276 280 283 285 285 287 289 289 289 291 293 294 294 295 294 295 296 298
242 241 241 242 244 247 249 250 251 251 253 256 257 258 259 260 260 262 264 266 267 268 269 271 274 277 280 282 282 284 286 287 288 290 291 292 292 292 294 294 296 297 296
240 242 242 241 242 243 246 248 250 251 250 252 254 256 259 261 262 264 266 268 269 270 272 273 276 278 278 278 280 283 285 287 289 290 292 290 291 291 295 294 293 292 295
240 241 242 243 242 243 243 244 246 249 250 251 251 253 255 257 258 260 264 266 267 268 269 272 273 275 277 278 280 283 286 287 288 288 287 288 289 293 291 289 293 294 296
240 242 243 242 243 243 243 244 245 245 245 247 249 250 252 256 258 260 262 263 265 267 268 269 271 274 275 276 278 280 281 283 285 285 285 288 288 290 291 291 294 296 296
241 240 242 242 241 243 244 245 245 246 248 248 250 250 252 255 257 259 261 262 264 266 266 268 269 272 274 276 277 280 281 281 282 282 284 286 287 289 291 293 295 295 296
241 239 239 241 241 241 241 243 245 245 246 248 250 252 253 253 255 257 259 261 263 263 265 266 268 270 271 273 275 277 278 279 281 282 284 285 287 289 291 291 293 296 296
245 245 241 238 240 242 241 242 243 245 246 247 249 251 253 254 255 256 257 258 260 261 264 266 267 269 271 273 275 275 277 278 280 282 282 285 288 288 290 292 295 296 296
244 245 243 241 241 242 241 241 241 243 245 247 248 249 250 252 255 255 257 258 260 261 263 265 267 268 270 272 273 275 276 278 280 280 283 286 288 289 290 293 294 296 297
246 243 244 243 241 241 240 240 241 241 243 245 247 249 250 250 252 255 256 257 259 260 261 264 266 268 269 271 273 275 277 278 280 281 284 285 286 288 291 291 295 295 298
Height
10839 10844 10847 10849 10853 10857 10856 10859 10864 10865 10866 10867 10870 10871 10871 10871 10872 10872 10872 10872 10871 10870 10869 10868 10866 10864 10863 10861 10859 10856 10853 10850 10847 10843 10840 10836 10832 10829 10827 10823 10818 10814 10809
10827 10831 10835 10838 10841 10844 10848 10846 10849 10855 10857 10860 10861 10861 10863 10863 10864 10864 10866 10865 10865 10864 10863 10862 10860 10859 10857 10856 10853 10850 10847 10844 10841 10837 10833 10829 10825 10823 10820 10817 10812 10807 10804
10817 10819 10821 10827 10827 10831 10833 10836 10838 10842 10846 10849 10852 10851 10852 10853 10855 10856 10856 10857 10857 10856 10855 10854 10854 10852 10851 10849 10847 10844 10842 10838 10835 10832 10828 10823 10819 10816 10813 10809 10805 10800 10796
10804 10805 10806 10811 10815 10815 10816 10823 10829 10830 10834 10838 10841 10841 10842 10843 10842 10847 10847 10846 10847 10847 10846 10845 10845 10843 10843 10842 10840 10837 10834 10831 10828 10825 10822 10817 10812 10807 10804 10801 10798 10793 10788
10791 10792 10793 10795 10800 10802 10805 10807 10815 10819 10820 10826 10829 10830 10831 10831 10833 10836 10837 10837 10837 10837 10837 10836 10835 10833 10832 10832 10831 10829 10825 10823 10819 10816 10813 10809 10805 10800 10796 10792 10789 10785 10781
10779 10783 10783 10781 10786 10789 10791 10792 10796 10804 10809 10812 10815 10818 10818 10819 10822 10824 10825 10826 10827 10827 10827 10827 10825 10823 10821 10821 10820 10818 10815 10813 10810 10807 10803 10800 10797 10793 10790 10786 10782 10779 10774
10766 10770 10769 10768 10769 10771 10776 10776 10780 10786 10792 10797 10801 10802 10802 10806 10809 10811 10812 10813 10814 10817 10818 10818 10815 10813 10811 10809 10808 10807 10805 10802 10799 10796 10794 10791 10787 10784 10781 10778 10774 10770 10765
10749 10752 10752 10754 10757 10759 10762 10763 10767 10770 10775 10781 10786 10788 10790 10792 10794 10798 10799 10799 10801 10804 10807 10807 10805 10803 10801 10798 10796 10794 10792 10790 10787 10785 10783 10780 10776 10774 10770 10767 10764 10761 10757
10725 10730 10734 10738 10743 10744 10750 10752 10756 10760 10764 10766 10768 10772 10774 10778 10779 10782 10786 10787 10786 10789 10793 10794 10792 10791 10789 10787 10785 10782 10780 10778 10776 10774 10772 10769 10764 10760 10758 10754 10751 10747 10746
10704 10711 10714 10721 10726 10732 10736 10743 10747 10750 10753 10756 10757 10759 10759 10764 10767 10767 10771 10773 10773 10776 10778 10777 10776 10776 10775 10774 10773 10770 10768 10766 10764 10761 10759 10756 10752 10748 10744 10742 10738 10733 10730
10685 10688 10691 10702 10708 10715 10720 10725 10732 10740 10743 10745 10743 10746 10749 10752 10754 10755 10755 10757 10760 10762 10764 10763 10763 10763 10763 10763 10762 10759 10757 10755 10752 10748 10746 10742 10740 10736 10732 10728 10724 10720 10716
10660 10666 10674 10681 10687 10693 10702 10707 10713 10724 10727 10730 10731 10733 10735 10740 10743 10742 10741 10742 10746 10749 10751 10751 10750 10750 10750 10750 10748 10746 10744 10742 10739 10736 10733 10730 10727 10723 10718 10714 10710 10705 10701
10635 10643 10650 10658 10666 10674 10681 10688 10694 10702 10709 10712 10714 10717 10720 10724 10726 10726 10727 10730 10733 10735 10737 10737 10736 10736 10735 10734 10733 10731 10729 10727 10724 10721 10719 10715 10711 10708 10704 10700 10696 10691 10686
10613 10618 10627 10633 10641 10650 10657 10665 10676 10683 10687 10692 10693 10699 10700 10703 10706 10711 10712 10715 10717 10719 10721 10721 10721 10721 10720 10718 10717 10716 10714 10711 10708 10706 10704 10700 10696 10692 10688 10684 10681 10675 10670
10598 10602 10607 10611 10618 10624 10632 10641 10653 10664 10669 10671 10671 10676 10679 10682 10687 10691 10695 10698 10700 10701 10703 10703 10703 10703 10703 10702 10700 10699 10697 10695 10692 10688 10685 10681 10678 10675 10671 10667 10662 10657 10650
10566 10574 10581 10588 10596 10601 10606 10614 10624 10636 10646 10649 10648 10651 10657 10660 10664 10670 10676 10679 10681 10684 10685 10685 10686 10685 10684 10683 10681 10679 10677 10675 10672 10670 10666 10662 10658 10653 10651 10648 10643 10636 10631
10538 10546 10558 10561 10564 10571 10582 10591 10599 10609 10616 10624 10626 10628 10632 10635 10640 10646 10652 10656 10661 10664 10664 10665 10666 10667 10666 10662 10660 10657 10655 10653 10651 10648 10646 10642 10636 10632 10627 10624 10620 10614 10609
10502 10512 10515 10527 10541 10550 10555 10565 10571 10581 10589 10599 10604 10605 10607 10611 10615 10619 10625 10632 10638 10640 10640 10642 10644 10647 10646 10642 10638 10635 10633 10630 10628 10625 10624 10620 10615 10610 10605 10601 10597 10592 10585
10466 10474 10477 10494 10507 10521 10528 10534 10544 10553 10567 10575 10579 10578 10581 10586 10591 10595 10600 10610 10616 10618 10619 10621 10624 10626 10626 10621 10615 10612 10610 10605 10603 10600 10594 10590 10588 10589 10585 10581 10574 10569 10563
10434 10440 10448 10463 10479 10489 10498 10509 10520 10528 10541 10544 10550 10554 10557 10561 10565 10570 10579 10586 10589 10594 10596 10598 10601 10602 10604 10599 10592 10590 10587 10583 10579 10576 10569 10564 10561 10564 10561 10555 10552 10545 10540
10407 10410 10417 10436 10445 10455 10465 10478 10493 10505 10505 10513 10519 10530 10535 10537 10540 10545 10557 10563 10567 10568 10571 10575 10578 10578 10578 10575 10573 10569 10565 10561 10558 10550 10543 10541 10537 10536 10532 10531 10527 10520 10512
10365 10377 10386 10405 10413 10423 10436 10449 10466 10470 10476 10485 10492 10502 10510 10512 10515 10524 10530 10538 10545 10544 10546 10549 10552 10554 10552 10548 10546 10546 10543 10537 10533 10526 10519 10516 10513 10511 10508 10502 10498 10493 10485
10320 10335 10356 10369 10376 10384 10402 10418 10427 10435 10446 10455 10463 10468 10477 10486 10491 10499 10505 10509 10518 10521 10521 10523 10527 10529 10527 10524 10522 10523 10519 10513 10508 10502 10496 10490 10488 10489 10485 10477 10472 10465 10456
10292 10309 10326 10341 10347 10352 10371 10385 10393 10401 10414 10428 10432 10438 10446 10455 10460 10470 10479 10485 10492 10497 10498 10498 10499 10501 10499 10499 10498 10494 10492 10489 10483 10478 10471 10463 10462 10462 10458 10451 10446 10436 10427
10266 10276 10292 10310 10323 10321 10341 10348 10358 10369 10382 10390 10399 10409 10417 10425 10428 10437 10447 10457 10464 10468 10472 10473 10474 10473 10474 10472 10469 10469 10464 10462 10457 10449 10448 10442 10435 10430 10427 10424 10417 10408 10397
10238 10254 10267 10272 10282 10286 10305 10314 10327 10340 10346 10357 10366 10378 10386 10395 10401 10406 10417 10427 10436 10440 10445 10447 10448 10449 10448 10445 10445 10440 10437 10432 10425 10423 10423 10419 10409 10403 10402 10397 10387 10377 10369